KLOM

Details ICAO KLOM (BBX)
Name Wings Field
Region United States
Timezone America/New_York (UTC-4.0)
Plans Departing 20
Arriving 10
Stats Elevation 301 ft / 92 m (AMSL)
Location 40.137564° -75.265131°
Runways 1
Magnetic Variation 12.100° W
Sunrise 2018-05-23 09:40:24 UTC / 2018-05-23 05:40:24 Local
Sunset 2018-05-24 00:18:07 UTC / 2018-05-23 20:18:07 Local
Advertisement - Login to hide

Runways

ID Width Length Bearing (true) Bearing (mag) Surface Threshold Offset Overrun Length
06 75 ft / 23 m 3,703 ft / 1,129 m 53.00° 65.10° Asphalt 177 ft / 54 m 102 ft / 31 m
24 75 ft / 23 m 3,703 ft / 1,129 m 233.01° 245.11° Asphalt 0 ft / 0 m 0 ft / 0 m

Map

Weather


0- 5 10 15 20 25 30 35+ Temperature / ° C

Clouds and Precipitation
Forecast for 2018-05-24 00:00 UTC. Updated 5 hours ago

Ground ~20,000 ft ~40,000 ft Winds

METAR

KLOM 240415Z AUTO 00000KT 10SM CLR 15/13 A3008 RMK AO1

TAF

Not found

Frequencies

Recorded 118.92 MHz WX AWOS-3
Clearance 118.55 MHz CLNC DEL
Unicom 123.00 MHz CTAF/UNICOM
Approach 126.85 MHz PHILADELPHIA APP/DEP
Warning: Do not use this data for real-world aviation or navigation. No guarantee of current accuracy is given.